Home > Weather > Thiès > Past weeks

Flag for Senegal Weather for the Past 2 Weeks in Thiès, Senegal

Now
72 °F

Sunny.


Feels Like: 72 °F
Forecast: N/A
Wind: 23 mph from North

Location: Dakar / Yoff

Current Time: May 5, 2016 at 6:56:49 PM

Latest Report: May 5, 2016 at 6:00 PM


Visibility: 10 mi

Pressure: 29.89 "Hg

Humidity: 78%

Dew Point: 64 °F

Location of ThièsLocation

Historic Weather in Thiès — Graph

°F

Thiès Temperature Yesterday

Maximum temperature yesterday: 75 °F (at 12:00 PM)
Minimum temperature yesterday: 68 °F (at 12:00 AM)
Average temperature yesterday: 71 °F

High & Low Weather Summary for the Past Weeks

 TemperatureHumidityPressure
High81 °F (Apr 22, 2:30 PM)94% (Apr 23, 10:30 PM)32.52 "Hg (Apr 23, 10:30 PM)
Low66 °F (Apr 25, 6:30 AM)48% (Apr 22, 1:00 PM)29.74 "Hg (Apr 22, 5:30 PM)
Average71 °F80%29.86 "Hg
* Reported Apr 20 6:00 PM — May 5 6:00 PM, Thiès, Weather by CustomWeather, © 2016

Note: Actual official high and low records may vary slightly from our data, if they occured in-between our weather recording intervals... More about our weather records

Advertising

Thiès Weather History for the Previous 24 Hours

Scroll right to see more
 ConditionsComfort  
Time TempWeatherWind HumidityBarometerVisibility
6:00 PM
Thu, May 5
72 °FSunny.23 mph78%29.89 "Hg10 mi
5:30 PM72 °FSunny.23 mph73%29.89 "Hg10 mi
5:00 PM72 °FSunny.21 mph73%29.89 "Hg10 mi
4:30 PM73 °FSunny.20 mph69%29.92 "Hg10 mi
4:00 PM73 °FSunny.20 mph74%29.92 "Hg10 mi
3:30 PM73 °FSunny.20 mph74%29.92 "Hg10 mi
3:00 PM73 °FSunny.21 mph74%29.92 "Hg10 mi
2:30 PM75 °FSunny.20 mph69%29.95 "Hg10 mi
2:00 PM75 °FSunny.20 mph69%29.95 "Hg10 mi
1:30 PM75 °FSunny.18 mph69%29.95 "Hg10 mi
1:00 PM75 °FSunny.20 mph69%29.95 "Hg10 mi
12:30 PM75 °FSunny.21 mph65%29.95 "Hg10 mi
12:00 PM75 °FSunny.20 mph69%29.98 "Hg10 mi
11:30 AM75 °FSunny.20 mph69%29.98 "Hg10 mi
11:00 AM73 °FSunny.20 mph74%29.95 "Hg10 mi
10:30 AM73 °FSunny.20 mph74%29.95 "Hg10 mi
10:00 AM73 °FSunny.21 mph74%29.95 "Hg10 mi
9:30 AM72 °FSunny.20 mph78%29.95 "Hg10 mi
9:00 AM70 °FSunny.18 mph83%29.92 "Hg10 mi
8:30 AM70 °FSunny.17 mph83%29.92 "Hg10 mi
8:00 AM68 °FSunny.18 mph88%29.92 "Hg10 mi
7:30 AM68 °FSunny.17 mph83%29.92 "Hg10 mi
7:00 AM68 °FClear.17 mph83%29.89 "Hg5 mi
6:30 AM68 °FClear.15 mph83%29.89 "Hg5 mi
6:00 AM68 °FClear.15 mph83%29.89 "Hg10 mi
5:30 AM68 °FClear.14 mph83%29.89 "Hg10 mi
5:00 AM68 °FClear.15 mph83%29.89 "Hg10 mi
4:30 AM68 °FClear.14 mph88%29.89 "Hg10 mi
4:00 AM68 °FClear.15 mph88%29.89 "Hg10 mi
3:30 AM68 °FClear.14 mph83%29.92 "Hg10 mi
3:00 AM68 °FClear.16 mph88%29.92 "Hg10 mi
2:30 AM68 °FClear.15 mph83%29.95 "Hg10 mi
2:00 AM68 °FClear.16 mph88%29.95 "Hg10 mi
1:30 AM68 °FClear.15 mph83%29.95 "Hg10 mi
1:00 AM68 °FClear.16 mph83%29.95 "Hg10 mi
12:30 AM68 °FClear.17 mph83%29.95 "Hg10 mi
12:00 AM68 °FClear.16 mph83%29.95 "Hg10 mi
11:30 PM
Wed, May 4
68 °FClear.15 mph83%29.95 "Hg10 mi
11:00 PM70 °FClear.17 mph78%29.95 "Hg10 mi
10:30 PM70 °FClear.18 mph78%29.95 "Hg10 mi
10:00 PM70 °FClear.20 mph78%29.95 "Hg10 mi
9:30 PM70 °FClear.20 mph78%29.92 "Hg10 mi
9:00 PM70 °FClear.20 mph78%29.92 "Hg10 mi
8:30 PM70 °FClear.20 mph83%29.92 "Hg10 mi
8:00 PM70 °FClear.20 mph78%29.92 "Hg10 mi
7:30 PM70 °FClear.18 mph83%29.89 "Hg10 mi
7:00 PM72 °FSunny.20 mph73%29.89 "Hg10 mi
6:30 PM72 °FSunny.20 mph73%29.89 "Hg10 mi
6:00 PM72 °FSunny.18 mph78%29.89 "Hg10 mi
Weather by CustomWeather, © 2016

See weather overviewHow to use our weather pages